METAR LSZS 280550Z AUTO 14001KT 9999 BKN070 08/07 Q1018=
Diese Daten sind ohne Gewähr und dürfen nicht für die Flugvorbereitung verwendet werden.
Information contained in this website shall not be used for flight operation purposes.